(233386) = 2006 EH19

Discovered at Kitt Peak on 2006-03-02 by Spacewatch.

Orbit

Orbit type: Main Belt

Note: WebGL enabled browser required.

epoch2024-03-31.0
epoch JD2460400.5
perihelion date2020-06-20.15592
perihelion JD2459020.65592
argument of perihelion (°)69.95467
ascending node (°)182.28236
inclination (°)4.29552
eccentricity0.0380881
perihelion distance (AU)2.6190929
Tisserand w.r.t. Jupiter3.4
ΔV w.r.t. Earth (km/sec)10.2
semimajor axis (AU)2.7227992
mean anomaly (°)302.69862
mean daily motion (°/day)0.21937160
aphelion distance (AU)2.827
period (years)4.49
P-vector [x]-0.30518496
P-vector [y]-0.89931253
P-vector [z]-0.31320779
Q-vector [x]0.95228842
Q-vector [y]-0.28923487
Q-vector [z]-0.09741635
absolute magnitude16.79
phase slope0.15
uncertainty0
referenceMPEC 2024-F14
observations used360
oppositions15
arc length (days)7034
first opposition used2004
last opposition used2024
residual rms (arc-secs)0.73
perturbers coarse indicatorM-v
perturbers precise indicator003Ek
first observation date used2004-12-13.0
last observation date used2024-03-17.0
computer nameMPCLINUX
JD of orbit computation2456731.522033
perihelion JD uncertainty (days)6.3265E-04
argument of perihelion uncertainty (°)1.5252E-04
ascending node uncertainty (°)7.6849E-05
inclination uncertainty (°)7.3744E-06
eccentricity uncertainty 6.8681E-08
perihelion distance uncertainty (AU)1.7520E-07
Minimum Orbit Intersection Distances (in AU)
for orbit epoch: 2460400.5, reference: E2024-G95
Mercury2.15695
Venus1.89549
Earth1.60864
Mars1.03342
Jupiter2.16228
Saturn6.22587
Uranus15.7198
Neptune27.0161

Observations

369 total observations over interval: 2004 12 13.38641 – 2024 03 17.521949
These data are available for download (format description).

Date (UT) J2000 RA J2000 Dec Magn Location Ref
2004 12 13.38641 06 06 25.98 +16 54 46.7 20.9 V 291 – LPL/Spacewatch II MPS 259301
2004 12 13.39810 06 06 25.27 +16 54 46.0 20.8 V 291 – LPL/Spacewatch II MPS 259301
2004 12 13.41014 06 06 24.60 +16 54 45.7 21.6 V 291 – LPL/Spacewatch II MPS 259302
2006 03 02.40977 12 51 04.86 -05 29 38.5 21.0 V 691 – Steward Observatory, Kitt Peak-Spacewatch MPS 166403
2006 03 02.41967 12 51 04.59 -05 29 35.4 20.8 V 691 – Steward Observatory, Kitt Peak-Spacewatch MPS 166403
2006 03 02.42710 12 51 04.40 -05 29 33.9 20.8 V 691 – Steward Observatory, Kitt Peak-Spacewatch MPS 166403
2006 03 02.43700 12 51 04.08 -05 29 30.9 20.7 V 691 – Steward Observatory, Kitt Peak-Spacewatch MPS 166403
2006 03 02.44441 12 51 03.86 -05 29 28.7 20.7 V 691 – Steward Observatory, Kitt Peak-Spacewatch MPS 166403
2006 03 02.45431 12 51 03.59 -05 29 26.3 21.0 V 691 – Steward Observatory, Kitt Peak-Spacewatch MPS 166403
2006 03 06.41586 12 49 06.28 -05 10 32.3   691 – Steward Observatory, Kitt Peak-Spacewatch MPS 166403
2006 03 06.43323 12 49 05.71 -05 10 26.4   691 – Steward Observatory, Kitt Peak-Spacewatch MPS 166403
2006 03 06.45061 12 49 05.13 -05 10 21.3   691 – Steward Observatory, Kitt Peak-Spacewatch MPS 166403
2006 03 23.32673 12 37 46.09 -03 28 46.8 20.7 V G96 – Mt. Lemmon Survey MPS 167214
2006 03 23.33362 12 37 45.76 -03 28 44.2 20.6 V G96 – Mt. Lemmon Survey MPS 167214
2006 03 23.34047 12 37 45.44 -03 28 41.3 20.6 V G96 – Mt. Lemmon Survey MPS 167214
2006 03 23.34729 12 37 45.12 -03 28 39.0 20.2 V G96 – Mt. Lemmon Survey MPS 167214
2006 04 08.21449 12 25 19.16 -01 41 01.1 20.1 V G96 – Mt. Lemmon Survey MPS 168870
2006 04 08.22171 12 25 18.87 -01 40 58.5 20.0 V G96 – Mt. Lemmon Survey MPS 168870
2006 04 08.22855 12 25 18.51 -01 40 55.7 20.6 V G96 – Mt. Lemmon Survey MPS 168870
2006 04 08.23545 12 25 18.19 -01 40 53.2 20.0 V G96 – Mt. Lemmon Survey MPS 168870
2008 09 24.40744 03 15 31.57 +14 49 55.7 20.9 V G96 – Mt. Lemmon Survey MPS 259302
2008 09 24.41601 03 15 31.46 +14 49 54.2 20.6 V G96 – Mt. Lemmon Survey MPS 259302
2008 09 24.42458 03 15 31.35 +14 49 53.0 20.7 V G96 – Mt. Lemmon Survey MPS 259302
2008 09 24.43316 03 15 31.24 +14 49 51.1 20.6 V G96 – Mt. Lemmon Survey MPS 259302
2008 09 29.40467 03 14 21.62 +14 34 58.7   691 – Steward Observatory, Kitt Peak-Spacewatch MPS 259302
2008 09 29.42227 03 14 21.27 +14 34 55.9   691 – Steward Observatory, Kitt Peak-Spacewatch MPS 259302
2008 09 29.43987 03 14 20.93 +14 34 52.7   691 – Steward Observatory, Kitt Peak-Spacewatch MPS 259302
2008 11 02.15152 02 52 38.66 +12 03 23.8   691 – Steward Observatory, Kitt Peak-Spacewatch MPS 263261
2008 11 02.16920 02 52 37.71 +12 03 18.3   691 – Steward Observatory, Kitt Peak-Spacewatch MPS 263261
2008 11 02.18687 02 52 36.73 +12 03 12.8   691 – Steward Observatory, Kitt Peak-Spacewatch MPS 263261
2008 11 17.26524 02 39 43.63 +10 50 44.9 20.6 V 691 – Steward Observatory, Kitt Peak-Spacewatch MPS 265275
2008 11 17.29426 02 39 42.17 +10 50 37.5 20.5 V 691 – Steward Observatory, Kitt Peak-Spacewatch MPS 265275
2008 11 17.32329 02 39 40.72 +10 50 29.7 21.0 V 691 – Steward Observatory, Kitt Peak-Spacewatch MPS 265275
2008 11 19.17324 02 38 12.94 +10 42 40.5 20.3 V 691 – Steward Observatory, Kitt Peak-Spacewatch MPS 265275
2008 11 19.18643 02 38 12.34 +10 42 37.2 20.7 V 691 – Steward Observatory, Kitt Peak-Spacewatch MPS 265275
2008 11 19.19962 02 38 11.69 +10 42 34.0 20.3 V 691 – Steward Observatory, Kitt Peak-Spacewatch MPS 265275
2008 11 21.16879 02 36 41.00 +10 34 36.1 20.6 V 691 – Steward Observatory, Kitt Peak-Spacewatch MPS 265275
2008 11 21.18200 02 36 40.36 +10 34 33.4 20.6 V 691 – Steward Observatory, Kitt Peak-Spacewatch MPS 265275
2008 11 21.19521 02 36 39.77 +10 34 30.0 20.6 V 691 – Steward Observatory, Kitt Peak-Spacewatch MPS 265275
2009 01 02.19906 02 23 42.75 +09 46 44.4 21.6 V G96 – Mt. Lemmon Survey MPS 270169
2009 01 02.20822 02 23 42.82 +09 46 46.2 21.6 V G96 – Mt. Lemmon Survey MPS 270169
2009 01 02.21726 02 23 42.90 +09 46 46.2 20.9 V G96 – Mt. Lemmon Survey MPS 270169
2009 01 02.22651 02 23 43.04 +09 46 46.9 21.7 V G96 – Mt. Lemmon Survey MPS 270169
2010 01 08.39539 09 38 08.87 +09 02 12.5 21.1 V 691 – Steward Observatory, Kitt Peak-Spacewatch MPS 310227
2010 01 08.41304 09 38 08.33 +09 02 14.8 21.3 V 691 – Steward Observatory, Kitt Peak-Spacewatch MPS 310227
2010 01 08.43068 09 38 07.83 +09 02 17.3 20.6 V 691 – Steward Observatory, Kitt Peak-Spacewatch MPS 310227
2010 01 12.33166 09 36 06.29 +09 11 19.1   691 – Steward Observatory, Kitt Peak-Spacewatch MPS 310227
2010 01 12.34931 09 36 05.66 +09 11 21.3   691 – Steward Observatory, Kitt Peak-Spacewatch MPS 310227
2010 01 12.36696 09 36 05.04 +09 11 24.3   691 – Steward Observatory, Kitt Peak-Spacewatch MPS 310227
2010 02 11.381864 09 12 34.196 +11 19 31.31 20.91 g F51 – Pan-STARRS 1, Haleakala MPS 338854
2010 02 11.392166 09 12 33.623 +11 19 34.69 21.09 g F51 – Pan-STARRS 1, Haleakala MPS 338854
2010 02 15.28028 09 09 13.14 +11 40 05.1 20.8 V G96 – Mt. Lemmon Survey MPS 313292
2010 02 15.28683 09 09 12.81 +11 40 07.2 20.5 V G96 – Mt. Lemmon Survey MPS 313292
2010 02 15.29341 09 09 12.45 +11 40 09.2 20.7 V G96 – Mt. Lemmon Survey MPS 313292
2010 02 15.30002 09 09 12.13 +11 40 11.6 20.7 V G96 – Mt. Lemmon Survey MPS 313292
2010 04 11.16353 08 53 01.06 +14 41 44.1 21.6 V G96 – Mt. Lemmon Survey MPS 323361
2010 04 11.17068 08 53 01.21 +14 41 44.3 21.7 V G96 – Mt. Lemmon Survey MPS 323361
2010 04 11.17785 08 53 01.32 +14 41 44.7 21.3 V G96 – Mt. Lemmon Survey MPS 323361
2010 04 11.18494 08 53 01.50 +14 41 45.0 21.6 V G96 – Mt. Lemmon Survey MPS 323361
2011 05 29.07480 16 17 24.67 -15 00 58.1 20.2 R J04 – ESA Optical Ground Station, Tenerife MPS 385740
2011 05 29.09621 16 17 23.47 -15 00 54.2 20.4 R J04 – ESA Optical Ground Station, Tenerife MPS 385740
2011 05 29.11762 16 17 22.28 -15 00 49.7 20.3 R J04 – ESA Optical Ground Station, Tenerife MPS 385740
2012 09 16.16726 23 43 47.82 -00 47 26.1 20.5 V 691 – Steward Observatory, Kitt Peak-Spacewatch MPS 433138
2012 09 16.18521 23 43 46.98 -00 47 33.3 20.4 V 691 – Steward Observatory, Kitt Peak-Spacewatch MPS 433138
2012 09 16.20314 23 43 46.02 -00 47 40.6 19.9 V 691 – Steward Observatory, Kitt Peak-Spacewatch MPS 433138
2012 09 25.23862 23 36 45.36 -01 48 13.3 20.7 V G96 – Mt. Lemmon Survey MPS 433981
2012 09 25.24433 23 36 45.03 -01 48 15.3 20.6 V G96 – Mt. Lemmon Survey MPS 433981
2012 09 25.25006 23 36 44.82 -01 48 17.7 19.9 V G96 – Mt. Lemmon Survey MPS 433981
2012 09 25.25576 23 36 44.53 -01 48 19.8 20.5 V G96 – Mt. Lemmon Survey MPS 433981
2012 10 22.21759 23 21 29.70 -04 10 19.5 21.2 V G96 – Mt. Lemmon Survey MPS 439251
2012 10 22.22325 23 21 29.59 -04 10 20.8 20.8 V G96 – Mt. Lemmon Survey MPS 439251
2012 10 22.22891 23 21 29.44 -04 10 22.9 21.1 V G96 – Mt. Lemmon Survey MPS 439251
2012 10 22.23461 23 21 29.34 -04 10 23.5 21.1 V G96 – Mt. Lemmon Survey MPS 439251
2014 02 24.29814 05 37 06.708 +18 15 33.78 21.8 w F51 – Pan-STARRS 1, Haleakala MPS 503669
2014 02 24.31068 05 37 06.974 +18 15 35.15 21.5 w F51 – Pan-STARRS 1, Haleakala MPS 503669
2014 02 24.32322 05 37 07.228 +18 15 36.70 21.6 w F51 – Pan-STARRS 1, Haleakala MPS 503669
2015 01 19.48983 12 54 26.52 -06 35 33.6 21.6 V G96 – Mt. Lemmon Survey MPS 566534
2015 01 19.49510 12 54 26.66 -06 35 34.3 21.5 V G96 – Mt. Lemmon Survey MPS 566534
2015 01 19.50038 12 54 26.83 -06 35 34.9 21.4 V G96 – Mt. Lemmon Survey MPS 566534
2015 01 19.50565 12 54 26.99 -06 35 36.2 20.8 V G96 – Mt. Lemmon Survey MPS 566535
2015 01 23.59711 12 56 35.625 -06 44 46.03 21.4 w F51 – Pan-STARRS 1, Haleakala MPS 569130
2015 01 23.60875 12 56 35.950 -06 44 47.34 21.5 w F51 – Pan-STARRS 1, Haleakala MPS 569130
2015 01 23.62039 12 56 36.270 -06 44 48.97 21.6 w F51 – Pan-STARRS 1, Haleakala MPS 569130
2015 01 23.63197 12 56 36.582 -06 44 50.17 21.5 w F51 – Pan-STARRS 1, Haleakala MPS 569130
2015 01 25.53889 12 57 29.521 -06 48 17.04 21.6 w F51 – Pan-STARRS 1, Haleakala MPS 569130
2015 01 25.55419 12 57 29.910 -06 48 18.38 21.7 w F51 – Pan-STARRS 1, Haleakala MPS 569130
2015 01 25.56951 12 57 30.302 -06 48 19.97 21.7 w F51 – Pan-STARRS 1, Haleakala MPS 569130
2015 01 25.58481 12 57 30.673 -06 48 21.75 21.5 w F51 – Pan-STARRS 1, Haleakala MPS 569130
